Regional Weather Roundup
Issued by NWS Boston, MA

Current Version | Previous Version | Text Only | Print | Product List | Glossary Off
Versions: 1 2 3 4 5 6 7 8 9 10 11 12 13 14 15 16 17 18 19 20 21 22 23 24 25 26 27 28 29 30 31 32 33 34 35 36 37 38 39 40 41 42 43 44 45 46 47 48 49 50
674 ASUS41 KBOX 211010 RWRBOX REGIONAL WEATHER ROUNDUP NATIONAL WEATHER SERVICE BOSTON/NORTON MA 600 AM EDT TUE AUG 21 2018 NOTE: "FAIR" INDICATES FEW OR NO CLOUDS BELOW 12,000 FEET WITH NO SIGNIFICANT WEATHER AND/OR OBSTRUCTIONS TO VISIBILITY. MAZALL-211100- EASTERN MASSACHUSETTS CITY SKY/WX TMP DP RH WIND PRES REMARKS BOSTON CLOUDY 66 62 87 N6 30.13S BEVERLY MOCLDY 62 62 100 N5 30.13F LAWRENCE CLOUDY 64 59 83 CALM 30.17R BEDFORD CLOUDY 61 59 93 NW3 30.14R BLUE HILL N/A 62 62 100 NE8 30.13F NORWOOD CLOUDY 65 63 93 NW3 30.12S MARSHFIELD MOCLDY 66 64 94 VRB7 30.12F PLYMOUTH CLOUDY 67 64 90 NE7 30.12S TAUNTON CLOUDY 65 63 93 CALM 30.12S NEW BEDFORD CLOUDY 65 65 100 VRB5 30.10S $$ MAZALL-211100- CAPE COD AND THE ISLANDS CITY SKY/WX TMP DP RH WIND PRES REMARKS FALMOUTH CLOUDY 64 64 100 NE7 30.12S HYANNIS CLOUDY 66 65 96 NE9 30.10S FOG CHATHAM CLOUDY 66 64 93 NE9 30.12S FOG PROVINCETOWN CLOUDY 66 63 90 E8 30.12S NANTUCKET LGT RAIN 65 65 100 NE12 30.09R FOG MARTHAS VNYRD CLOUDY 66 66 100 NE8 30.10S FOG $$ MAZALL-211100- CENTRAL AND WESTERN MASSACHUSETTS CITY SKY/WX TMP DP RH WIND PRES REMARKS WORCESTER CLOUDY 58 58 100 N5 30.16R FITCHBURG CLOUDY 57 56 96 NW6 30.16S ORANGE FOG 55 54 96 CALM 30.17R VSB 1/4 SPRINGFIELD MOCLDY 56 55 97 CALM 30.14R WESTFIELD FOG 58 58 100 CALM 30.15R VSB 1/2 NORTH ADAMS CLOUDY 59 56 89 E9 30.15R PITTSFIELD CLOUDY 59 56 89 CALM 30.15R $$ RIZALL-211100- RHODE ISLAND CITY SKY/WX TMP DP RH WIND PRES REMARKS PROVIDENCE CLOUDY 65 61 87 N9 30.13S NEWPORT CLOUDY 64 63 96 N7 30.11F BLOCK ISLAND CLOUDY 66 64 93 NE10 30.12S SMITHFIELD CLOUDY 62 61 96 NE7 30.14S WESTERLY MOCLDY 66 63 90 N3 30.13R $$ CTZALL-211100- CONNECTICUT CITY SKY/WX TMP DP RH WIND PRES REMARKS BRADLEY INTL FAIR 57 56 96 NE3 30.14R HARTFORD CLOUDY 60 58 92 CALM 30.14R BRIDGEPORT FAIR 66 60 81 NE6 30.13R DANBURY CLOUDY 62 61 96 CALM 30.15R GROTON CLOUDY 64 61 90 N3 30.12S NEW HAVEN FAIR 63 60 90 N5 30.13S CHESTER CLOUDY 63 61 94 CALM 30.15R MERIDEN MOCLDY 62 58 86 N3 30.15R WILLIMANTIC CLOUDY 59 58 96 NE3 30.14S OXFORD MOCLDY 61 58 90 E3 30.15R $$ MEZ002-015-021-024-NHZ003-005-008-011-012-014-VTZ005-008-211100- NORTHERN NEW ENGLAND CITY SKY/WX TMP DP RH WIND PRES REMARKS PORTLAND ME CLOUDY 56 56 100 CALM 30.15S FOG BANGOR ME FAIR 54 53 97 CALM 30.16S CONCORD NH FOG 56 55 97 E3 30.16R VSB 1/4 MANCHESTER NH FOG 60 59 96 CALM 30.14 VSB 1/2 NASHUA NH FOG 58 58 100 W3 30.16R VSB 1/4 PORTSMOUTH NH PTCLDY 59 57 95 CALM 30.14S JAFFREY NH FOG 54 54 100 CALM 30.17S VSB 3/4 KEENE NH CLOUDY N/A N/A N/A CALM 30.17R BURLINGTON VT FAIR 61 56 83 SE6 30.11S MT. WASHINGTON PTCLDY 52 25 35 S9 N/A $$ NYZ052-076-211100- EASTERN NEW YORK CITY SKY/WX TMP DP RH WIND PRES REMARKS ALBANY CLOUDY 67 59 75 SW8 30.13R NEW YORK CITY FAIR 68 61 78 E6 30.11S $$ ANZALL-211100- MARINE OBSERVATIONS STATION/POSITION TIME TEMP WIND PRES VSBY WAVE AIR SEA DIR/SP/G HT/PER (UTC) (F) (DEG/KT/KT) (MB) (MI) (FT/S) BOSTON BUOY NOT AVBL BUZZARDS BAY 0900 66 20/ 12/ 12 1019.8F NANTUCKET SOUND NOT AVBL MASS BAY-STELLWA 0904 66 68 30/ 10/ 12 1018.7F 1 7/8 4/ 8 ISLE OF SHOALS 0900 63 20/ 7/ 7 1020.2F S OF BLOCK IS 0943 71 N/A 3/ 7 $$ ......................KEY......................... SKY/WX - SKY CONDITION/PRESENT WEATHER TMP - TEMPERATURE IN FAHRENHEIT DWPT - DEWPOINT IN FAHRENHEIT RH - RELATIVE HUMIDITY IN PERCENT WIND - DIRECTION AND SPEED IN MPH PRES - MEAN SEA LEVEL PRESSURE IN INCHES OF HG WCI - WIND CHILL INDEX VSB - VISIBILITY IN MILES HX - HEAT INDEX TC - TEMPERATURE IN CELSIUS VRB - VARIABLE WIND DIRECTION N/A - NOT AVAILABLE

USA.gov is the U.S. government's official web portal to all federal, state and local government web resources and services.